{"data":{"norad_id":61211,"epoch":"2026-09-20T13:48:32.248800Z","epoch_age_seconds":185588,"freshness":"STALE","line1":"1 61211U 24171M   26263.57537325  .00000457  00000+0  86194-5 0  9990","line2":"2 61211  53.1612 295.8428 0000783  36.3187 323.7884 15.69718734115008","mean_motion":15.69718734,"eccentricity":7.83e-5,"inclination_deg":53.1612,"raan_deg":295.8428,"arg_perigee_deg":36.3187,"mean_anomaly_deg":323.7884,"bstar":8.6194e-6,"rev_number":11500,"period_min":91.736179788754,"perigee_km":359.17418439618,"apogee_km":360.22932994555,"semimajor_km":6737.8387571709,"source":"CELESTRAK","updated_at":"2026-09-22T09:00:49.341122Z"}}